Frankfort, MI

12:07 AM EDT on July 31, 2016 (GMT -0400)
Frankfort

Weather History for KFKS - December, 2012

Change the Weather History Date:

Wednesday, December 5, 2012

  Actual Average (KTVC) Record (KTVC)
Temperature  
Mean Temperature 30 °F 30 °F  
Max Temperature 35 °F 36 °F 63 °F (2001)
Min Temperature 24 °F 24 °F 2 °F (1963)
Degree Days  
Heating Degree Days 36 35  
Month to date heating degree days 172  
Since 1 July heating degree days 1791  
Moisture  
Dew Point 20 °F    
Average Humidity 67    
Maximum Humidity 84    
Minimum Humidity 57    
Precipitation  
Precipitation 0.00 in 0.08 in 1.40 in (1982)
Month to date precipitation 0.41  
Year to date precipitation 30.97  
Sea Level Pressure  
Sea Level Pressure 30.33 in    
Wind  
Wind Speed 8 mph (NNE)    
Max Wind Speed 15 mph    
Max Gust Speed 24 mph    
Visibility 10 miles    
Events      
T = Trace of Precipitation, MM = Missing Value Source: NWS Daily Summary

Daily Weather History Graph

Daily Weather History Graph

Search for Another Location

Airport or City:

Trip Planner

Search our weather history database for the weather conditions in past years. The results will help you decide how hot, cold, wet, or windy it might be!

Date:

Astronomy

Dec. 05, 2012 Rise Set
Actual Time 8:06 AM EST 5:04 PM EST
Civil Twilight 7:33 AM EST 5:37 PM EST
Nautical Twilight 6:56 AM EST 6:14 PM EST
Astronomical Twilight 6:21 AM EST 6:49 PM EST
Moon No Moon Rise 12:18 PM EST (12/5)
Length of Visible Light 10h 04m
Length of Day
8h 58m
Waning Gibbous, 60% of the Moon is Illuminated
Dec 5
Waning Gibbous
Dec 6
Last Quarter
Dec 13
New
Dec 20
First Quarter
Dec 28
Full

Hourly Weather History & Observations

Time (EST) Temp. Windchill Dew Point Humidity Pressure Visibility Wind Dir Wind Speed Gust Speed Precip Events Conditions
12:11 AM 29.7 °F 18.6 °F 18.1 °F 62% 30.23 in 10.0 mi NNW 15.0 mph 24.2 mph N/A   Overcast
12:32 AM 29.1 °F 18.9 °F 16.9 °F 60% 30.25 in 10.0 mi NW 12.7 mph 19.6 mph N/A   Mostly Cloudy
12:52 AM 29.8 °F 22.2 °F 17.1 °F 59% 30.25 in 10.0 mi NW 8.1 mph 20.7 mph N/A   Mostly Cloudy
1:12 AM 30.2 °F 21.9 °F 17.4 °F 59% 30.25 in 10.0 mi NNW 9.2 mph 19.6 mph N/A   Overcast
1:32 AM 30.2 °F 19.8 °F 16.9 °F 58% 30.25 in 10.0 mi NW 13.8 mph 20.7 mph N/A   Overcast
1:52 AM 30.2 °F 22.6 °F 17.2 °F 59% 30.25 in 10.0 mi NNW 8.1 mph 21.9 mph N/A   Overcast
2:12 AM 30.2 °F 21.3 °F 17.6 °F 60% 30.25 in 10.0 mi NNW 10.4 mph 20.7 mph N/A   Overcast
2:52 AM 30.2 °F 23.4 °F 18.3 °F 61% 30.28 in 10.0 mi NNW 6.9 mph 19.6 mph N/A   Mostly Cloudy
3:12 AM 30.6 °F 21.8 °F 19.4 °F 63% 30.29 in 10.0 mi NW 10.4 mph 20.7 mph N/A   Mostly Cloudy
3:33 AM 30.9 °F 20.7 °F 20.1 °F 64% 30.29 in 10.0 mi NW 13.8 mph 21.9 mph N/A   Overcast
3:53 AM 31.1 °F 23.1 °F 20.3 °F 64% 30.30 in 10.0 mi NW 9.2 mph 18.4 mph N/A   Overcast
4:13 AM 31.1 °F 20.5 °F 20.1 °F 64% 30.30 in 10.0 mi NNW 15.0 mph 18.4 mph N/A   Overcast
4:33 AM 31.1 °F 20.5 °F 20.3 °F 64% 30.30 in 10.0 mi NW 15.0 mph 20.7 mph N/A   Overcast
4:53 AM 31.1 °F 21.9 °F 20.1 °F 64% 30.31 in 10.0 mi NNW 11.5 mph 18.4 mph N/A   Overcast
5:13 AM 31.5 °F 22.9 °F 20.3 °F 63% 30.31 in 10.0 mi NW 10.4 mph - N/A   Overcast
5:33 AM 31.5 °F 22.9 °F 20.8 °F 65% 30.33 in 10.0 mi NW 10.4 mph 17.3 mph N/A   Overcast
5:53 AM 31.6 °F 24.4 °F 21.0 °F 65% 30.34 in 10.0 mi NNW 8.1 mph - N/A   Overcast
6:14 AM 31.6 °F 23.7 °F 20.7 °F 64% 30.35 in 10.0 mi NNW 9.2 mph - N/A   Overcast
6:54 AM 31.8 °F 22.8 °F 20.3 °F 62% 30.36 in 10.0 mi NNW 11.5 mph 20.7 mph N/A   Overcast
7:14 AM 31.8 °F 22.3 °F 20.8 °F 64% 30.37 in 10.0 mi NNW 12.7 mph 18.4 mph N/A   Overcast
7:34 AM 32.0 °F 24.8 °F 20.1 °F 62% 30.38 in 10.0 mi NNW 8.1 mph - N/A   Overcast
7:54 AM 31.8 °F 27.3 °F 19.8 °F 61% 30.38 in 10.0 mi NNW 4.6 mph 18.4 mph N/A   Overcast
9:35 AM 31.6 °F 27.0 °F 21.0 °F 65% 30.41 in 10.0 mi NNW 4.6 mph - N/A   Overcast
9:55 AM 32.0 °F 25.6 °F 21.7 °F 66% 30.41 in 10.0 mi North 6.9 mph - N/A   Overcast
10:15 AM 32.0 °F 28.7 °F 21.2 °F 64% 30.41 in 10.0 mi NNE 3.5 mph - N/A   Overcast
10:35 AM 32.0 °F 27.5 °F 21.2 °F 64% 30.41 in 10.0 mi North 4.6 mph - N/A   Overcast
10:55 AM 32.0 °F 27.5 °F 21.0 °F 64% 30.42 in 10.0 mi ENE 4.6 mph - N/A   Overcast
11:16 AM 32.0 °F 27.5 °F 21.2 °F 64% 30.42 in 10.0 mi NNE 4.6 mph - N/A   Overcast
11:36 AM 32.2 °F 28.9 °F 21.0 °F 63% 30.41 in 10.0 mi NE 3.5 mph - N/A   Overcast
11:56 AM 32.0 °F 27.5 °F 21.4 °F 65% 30.41 in 10.0 mi NE 4.6 mph - N/A   Overcast
12:16 PM 32.4 °F 26.9 °F 21.4 °F 64% 30.40 in 10.0 mi East 5.8 mph - N/A   Overcast
12:36 PM 32.5 °F 28.1 °F 20.8 °F 62% 30.40 in 10.0 mi ENE 4.6 mph - N/A   Overcast
12:56 PM 33.1 °F 28.7 °F 20.8 °F 61% 30.40 in 10.0 mi East 4.6 mph - N/A   Overcast
1:16 PM 33.1 °F - 19.9 °F 59% 30.40 in 10.0 mi Calm Calm - N/A   Mostly Cloudy
1:36 PM 35.1 °F 30.1 °F 21.2 °F 57% 30.40 in 10.0 mi East 5.8 mph - N/A   Mostly Cloudy
1:52 PM 34.3 °F 31.4 °F 21.4 °F 59% 30.40 in 10.0 mi East 3.5 mph - N/A   Mostly Cloudy
2:12 PM 34.2 °F 31.2 °F 21.0 °F 59% 30.39 in 10.0 mi NNE 3.5 mph - N/A   Mostly Cloudy
2:32 PM 33.4 °F 29.1 °F 21.2 °F 61% 30.38 in 10.0 mi NNW 4.6 mph - N/A   Mostly Cloudy
2:52 PM 32.7 °F 29.6 °F 20.5 °F 61% 30.38 in 10.0 mi ENE 3.5 mph - N/A   Scattered Clouds
3:12 PM 33.1 °F 27.7 °F 20.5 °F 60% 30.37 in 10.0 mi ENE 5.8 mph - N/A   Clear
3:32 PM 33.3 °F 27.1 °F 20.3 °F 59% 30.35 in 10.0 mi East 6.9 mph - N/A   Clear
3:52 PM 33.3 °F 30.2 °F 20.5 °F 59% 30.35 in 10.0 mi South 3.5 mph - N/A   Clear
4:13 PM 32.9 °F - 20.3 °F 60% 30.35 in 10.0 mi Calm Calm - N/A   Clear
4:33 PM 32.2 °F 28.9 °F 21.0 °F 63% 30.35 in 10.0 mi East 3.5 mph - N/A   Clear
4:53 PM 29.5 °F - 21.2 °F 71% 30.34 in 10.0 mi Calm Calm - N/A   Clear
5:13 PM 29.1 °F - 21.2 °F 72% 30.33 in 10.0 mi Calm Calm - N/A   Clear
5:33 PM 27.5 °F - 21.0 °F 77% 30.34 in 10.0 mi Calm Calm - N/A   Clear
5:53 PM 27.3 °F - 20.7 °F 76% 30.33 in 10.0 mi Calm Calm - N/A   Clear
6:13 PM 27.3 °F - 21.2 °F 78% 30.34 in 10.0 mi Calm Calm - N/A   Clear
6:33 PM 25.0 °F - 19.8 °F 81% 30.34 in 10.0 mi Calm Calm - N/A   Clear
6:54 PM 25.5 °F - 20.3 °F 81% 30.34 in 10.0 mi Calm Calm - N/A   Clear
7:14 PM 26.4 °F - 21.0 °F 80% 30.34 in 10.0 mi Calm Calm - N/A   Clear
7:34 PM 24.1 °F - 19.9 °F 84% 30.34 in 10.0 mi Calm Calm - N/A   Clear
7:54 PM 24.3 °F 19.9 °F 19.9 °F 84% 30.33 in 10.0 mi SE 3.5 mph - N/A   Clear
8:14 PM 25.3 °F - 20.8 °F 83% 30.33 in 10.0 mi Calm Calm - N/A   Clear
8:34 PM 26.1 °F 21.9 °F 20.7 °F 80% 30.32 in 10.0 mi SSE 3.5 mph - N/A   Clear
8:54 PM 26.2 °F 20.7 °F 20.5 °F 79% 30.32 in 10.0 mi ESE 4.6 mph - N/A   Clear
9:14 PM 27.7 °F 22.4 °F 21.2 °F 77% 30.31 in 10.0 mi SE 4.6 mph - N/A   Clear
9:34 PM 27.7 °F 22.4 °F 21.0 °F 76% 30.30 in 10.0 mi SE 4.6 mph - N/A   Clear
9:54 PM 27.1 °F 21.8 °F 20.5 °F 76% 30.29 in 10.0 mi SE 4.6 mph - N/A   Clear
10:15 PM 27.5 °F 21.1 °F 21.0 °F 77% 30.28 in 10.0 mi SSE 5.8 mph - N/A   Clear
10:35 PM 28.8 °F 20.9 °F 21.6 °F 74% 30.27 in 10.0 mi SE 8.1 mph - N/A   Clear
10:55 PM 29.3 °F 21.5 °F 21.7 °F 73% 30.25 in 10.0 mi SE 8.1 mph - N/A   Clear
11:15 PM 30.2 °F 22.6 °F 21.9 °F 71% 30.25 in 10.0 mi SSE 8.1 mph - N/A   Clear
11:35 PM 30.6 °F 21.2 °F 21.9 °F 70% 30.25 in 10.0 mi SSE 11.5 mph - N/A   Clear
11:55 PM 30.9 °F 22.8 °F 22.1 °F 70% 30.24 in 10.0 mi SSE 9.2 mph - N/A   Clear